owner,sensor,date,latitude,longitude,vertical_datum,sea_water_practical_salinity,qcFlag 
DISL,ioos:station:DISL:KATA:1,2017-07-01T00:00:00Z,30.2583,-88.2131,4.099,19.18,1111122 
DISL,ioos:station:DISL:KATA:1,2017-07-01T00:30:00Z,30.2583,-88.2131,4.09,18.94,1111122 
DISL,ioos:station:DISL:KATA:1,2017-07-01T01:00:00Z,30.2583,-88.2131,4.077,18.85,1111122 
DISL,ioos:station:DISL:KATA:1,2017-07-01T01:30:00Z,30.2583,-88.2131,4.077,18.85,1111122 
DISL,ioos:station:DISL:KATA:1,2017-07-01T02:00:00Z,30.2583,-88.2131,4.044,18.69,1111122 
DISL,ioos:station:DISL:KATA:1,2017-07-01T02:30:00Z,30.2583,-88.2131,4.044,18.69,1111122 
DISL,ioos:station:DISL:KATA:1,2017-07-01T03:00:00Z,30.2583,-88.2131,4.044,18.69,1111122 
DISL,ioos:station:DISL:KATA:1,2017-07-01T03:30:00Z,30.2583,-88.2131,3.994,18.48,1111122 
DISL,ioos:station:DISL:KATA:1,2017-07-01T04:00:00Z,30.2583,-88.2131,3.986,18.42,1111122 
DISL,ioos:station:DISL:KATA:1,2017-07-01T04:30:00Z,30.2583,-88.2131,4.014,18.3,1111122 
DISL,ioos:station:DISL:KATA:1,2017-07-01T05:00:00Z,30.2583,-88.2131,4.041,18.13,1111122 
DISL,ioos:station:DISL:KATA:1,2017-07-01T05:30:00Z,30.2583,-88.2131,4.068,17.92,1111122 
DISL,ioos:station:DISL:KATA:1,2017-07-01T06:00:00Z,30.2583,-88.2131,4.113,18.02,1111122 
DISL,ioos:station:DISL:KATA:1,2017-07-01T06:30:00Z,30.2583,-88.2131,4.167,18.06,1111122 
DISL,ioos:station:DISL:KATA:1,2017-07-01T07:00:00Z,30.2583,-88.2131,4.195,18.15,1111122 
DISL,ioos:station:DISL:KATA:1,2017-07-01T07:30:00Z,30.2583,-88.2131,4.195,18.15,1111122 
DISL,ioos:station:DISL:KATA:1,2017-07-01T08:00:00Z,30.2583,-88.2131,4.209,18.26,1111122 
DISL,ioos:station:DISL:KATA:1,2017-07-01T08:30:00Z,30.2583,-88.2131,4.21,18.29,1111122 
DISL,ioos:station:DISL:KATA:1,2017-07-01T09:00:00Z,30.2583,-88.2131,4.206,18.23,1111122 
DISL,ioos:station:DISL:KATA:1,2017-07-01T09:30:00Z,30.2583,-88.2131,4.195,18.13,1111122 
DISL,ioos:station:DISL:KATA:1,2017-07-01T10:00:00Z,30.2583,-88.2131,4.19,18.15,1111122 
DISL,ioos:station:DISL:KATA:1,2017-07-01T10:30:00Z,30.2583,-88.2131,4.18,18.18,1111122 
DISL,ioos:station:DISL:KATA:1,2017-07-01T11:00:00Z,30.2583,-88.2131,4.171,17.95,1111122 
DISL,ioos:station:DISL:KATA:1,2017-07-01T11:30:00Z,30.2583,-88.2131,4.167,17.61,1111122 
DISL,ioos:station:DISL:KATA:1,2017-07-01T12:00:00Z,30.2583,-88.2131,4.157,17.32,1111122 
DISL,ioos:station:DISL:KATA:1,2017-07-01T12:30:00Z,30.2583,-88.2131,4.169,15.23,1111122 
DISL,ioos:station:DISL:KATA:1,2017-07-01T13:00:00Z,30.2583,-88.2131,4.168,15.3,1111122 
DISL,ioos:station:DISL:KATA:1,2017-07-01T13:30:00Z,30.2583,-88.2131,4.16,16.04,1111122 
DISL,ioos:station:DISL:KATA:1,2017-07-01T14:00:00Z,30.2583,-88.2131,4.165,15.81,1111122 
DISL,ioos:station:DISL:KATA:1,2017-07-01T14:30:00Z,30.2583,-88.2131,4.171,16.02,1111122 
DISL,ioos:station:DISL:KATA:1,2017-07-01T15:00:00Z,30.2583,-88.2131,4.152,15.95,1111122 
DISL,ioos:station:DISL:KATA:1,2017-07-01T15:30:00Z,30.2583,-88.2131,4.154,15.63,1111122 
DISL,ioos:station:DISL:KATA:1,2017-07-01T16:00:00Z,30.2583,-88.2131,4.125,15.37,1111122 
DISL,ioos:station:DISL:KATA:1,2017-07-01T16:30:00Z,30.2583,-88.2131,4.089,15.41,1111122 
DISL,ioos:station:DISL:KATA:1,2017-07-01T17:00:00Z,30.2583,-88.2131,4.065,15.44,1111122 
DISL,ioos:station:DISL:KATA:1,2017-07-01T17:30:00Z,30.2583,-88.2131,4.052,15.26,1111122 
DISL,ioos:station:DISL:KATA:1,2017-07-01T18:00:00Z,30.2583,-88.2131,4.052,15.26,1111122 
DISL,ioos:station:DISL:KATA:1,2017-07-01T18:30:00Z,30.2583,-88.2131,4.061,15.14,1111122 
DISL,ioos:station:DISL:KATA:1,2017-07-01T19:00:00Z,30.2583,-88.2131,4.024,15.14,1111122 
DISL,ioos:station:DISL:KATA:1,2017-07-01T19:30:00Z,30.2583,-88.2131,4.017,15.22,1111122 
DISL,ioos:station:DISL:KATA:1,2017-07-01T20:00:00Z,30.2583,-88.2131,4.025,15.15,1111122 
DISL,ioos:station:DISL:KATA:1,2017-07-01T20:30:00Z,30.2583,-88.2131,4.025,15.15,1111122 
DISL,ioos:station:DISL:KATA:1,2017-07-01T21:00:00Z,30.2583,-88.2131,4.015,15.17,1111122 
DISL,ioos:station:DISL:KATA:1,2017-07-01T21:30:00Z,30.2583,-88.2131,4.024,15.02,1111122 
DISL,ioos:station:DISL:KATA:1,2017-07-01T22:00:00Z,30.2583,-88.2131,4.021,14.98,1111122 
DISL,ioos:station:DISL:KATA:1,2017-07-01T22:30:00Z,30.2583,-88.2131,4.019,15.23,1111122 
DISL,ioos:station:DISL:KATA:1,2017-07-01T23:00:00Z,30.2583,-88.2131,4.011,15.05,1111122 
DISL,ioos:station:DISL:KATA:1,2017-07-01T23:30:00Z,30.2583,-88.2131,4.006,14.94,1111122 
DISL,ioos:station:DISL:KATA:1,2017-07-02T00:00:00Z,30.2583,-88.2131,4.002,14.95,1111122 
DISL,ioos:station:DISL:KATA:1,2017-07-02T00:30:00Z,30.2583,-88.2131,4.011,14.82,1111122 
DISL,ioos:station:DISL:KATA:1,2017-07-02T01:00:00Z,30.2583,-88.2131,4.026,14.75,1111122 
DISL,ioos:station:DISL:KATA:1,2017-07-02T01:30:00Z,30.2583,-88.2131,4.037,14.87,1111122 
DISL,ioos:station:DISL:KATA:1,2017-07-02T02:00:00Z,30.2583,-88.2131,4.054,15.01,1111122 
DISL,ioos:station:DISL:KATA:1,2017-07-02T02:30:00Z,30.2583,-88.2131,4.063,15.1,1111122 
DISL,ioos:station:DISL:KATA:1,2017-07-02T03:00:00Z,30.2583,-88.2131,4.063,15.23,1111122 
DISL,ioos:station:DISL:KATA:1,2017-07-02T03:30:00Z,30.2583,-88.2131,4.063,15.23,1111122 
DISL,ioos:station:DISL:KATA:1,2017-07-02T04:00:00Z,30.2583,-88.2131,4.063,15.23,1111122 
DISL,ioos:station:DISL:KATA:1,2017-07-02T04:30:00Z,30.2583,-88.2131,4.033,15.21,1111122 
DISL,ioos:station:DISL:KATA:1,2017-07-02T05:00:00Z,30.2583,-88.2131,4.019,14.67,1111122 
DISL,ioos:station:DISL:KATA:1,2017-07-02T05:30:00Z,30.2583,-88.2131,4.005,15.24,1111122 
DISL,ioos:station:DISL:KATA:1,2017-07-02T06:00:00Z,30.2583,-88.2131,4.02,15.12,1111122 
DISL,ioos:station:DISL:KATA:1,2017-07-02T06:30:00Z,30.2583,-88.2131,4.029,15.01,1111122 
DISL,ioos:station:DISL:KATA:1,2017-07-02T07:00:00Z,30.2583,-88.2131,4.029,15.01,1111122 
DISL,ioos:station:DISL:KATA:1,2017-07-02T07:30:00Z,30.2583,-88.2131,4.029,15.01,1111122 
DISL,ioos:station:DISL:KATA:1,2017-07-02T08:00:00Z,30.2583,-88.2131,4.064,14.98,1111122 
DISL,ioos:station:DISL:KATA:1,2017-07-02T08:30:00Z,30.2583,-88.2131,4.064,14.98,1111122 
DISL,ioos:station:DISL:KATA:1,2017-07-02T09:00:00Z,30.2583,-88.2131,4.064,14.98,1111122 
DISL,ioos:station:DISL:KATA:1,2017-07-02T09:30:00Z,30.2583,-88.2131,4.163,14.83,1111122 
DISL,ioos:station:DISL:KATA:1,2017-07-02T10:00:00Z,30.2583,-88.2131,4.163,14.83,1111122 
DISL,ioos:station:DISL:KATA:1,2017-07-02T10:30:00Z,30.2583,-88.2131,4.163,14.83,1111122 
DISL,ioos:station:DISL:KATA:1,2017-07-02T11:00:00Z,30.2583,-88.2131,4.163,14.83,1111122 
DISL,ioos:station:DISL:KATA:1,2017-07-02T11:30:00Z,30.2583,-88.2131,4.194,14.84,1111122 
DISL,ioos:station:DISL:KATA:1,2017-07-02T12:00:00Z,30.2583,-88.2131,4.194,14.84,1111122 
DISL,ioos:station:DISL:KATA:1,2017-07-02T12:30:00Z,30.2583,-88.2131,4.194,14.84,1111122 
DISL,ioos:station:DISL:KATA:1,2017-07-02T13:00:00Z,30.2583,-88.2131,4.21,15.05,1111122 
DISL,ioos:station:DISL:KATA:1,2017-07-02T13:30:00Z,30.2583,-88.2131,4.234,14.95,1111122 
DISL,ioos:station:DISL:KATA:1,2017-07-02T14:00:00Z,30.2583,-88.2131,4.229,14.98,1111122 
DISL,ioos:station:DISL:KATA:1,2017-07-02T14:30:00Z,30.2583,-88.2131,4.225,15.0,1111122 
DISL,ioos:station:DISL:KATA:1,2017-07-02T15:00:00Z,30.2583,-88.2131,4.201,14.87,1111122 
DISL,ioos:station:DISL:KATA:1,2017-07-02T15:30:00Z,30.2583,-88.2131,4.201,14.87,1111122 
DISL,ioos:station:DISL:KATA:1,2017-07-02T16:00:00Z,30.2583,-88.2131,4.201,14.87,1111122 
DISL,ioos:station:DISL:KATA:1,2017-07-02T16:30:00Z,30.2583,-88.2131,4.201,14.87,1111122 
DISL,ioos:station:DISL:KATA:1,2017-07-02T17:00:00Z,30.2583,-88.2131,4.201,14.87,1111122 
DISL,ioos:station:DISL:KATA:1,2017-07-02T17:30:00Z,30.2583,-88.2131,4.201,14.87,1111122 
DISL,ioos:station:DISL:KATA:1,2017-07-02T18:00:00Z,30.2583,-88.2131,4.029,13.37,1111122 
DISL,ioos:station:DISL:KATA:1,2017-07-02T18:30:00Z,30.2583,-88.2131,4.029,13.37,1111122 
DISL,ioos:station:DISL:KATA:1,2017-07-02T19:00:00Z,30.2583,-88.2131,3.993,12.49,1111122 
DISL,ioos:station:DISL:KATA:1,2017-07-02T19:30:00Z,30.2583,-88.2131,3.993,12.49,1111122 
DISL,ioos:station:DISL:KATA:1,2017-07-02T20:00:00Z,30.2583,-88.2131,3.98,10.89,1111122 
DISL,ioos:station:DISL:KATA:1,2017-07-02T20:30:00Z,30.2583,-88.2131,3.977,10.39,1111122 
DISL,ioos:station:DISL:KATA:1,2017-07-02T21:00:00Z,30.2583,-88.2131,3.971,11.09,1111122 
DISL,ioos:station:DISL:KATA:1,2017-07-02T21:30:00Z,30.2583,-88.2131,3.961,10.87,1111122 
DISL,ioos:station:DISL:KATA:1,2017-07-02T22:00:00Z,30.2583,-88.2131,3.961,10.87,1111122 
DISL,ioos:station:DISL:KATA:1,2017-07-02T22:30:00Z,30.2583,-88.2131,3.939,11.05,1111122 
DISL,ioos:station:DISL:KATA:1,2017-07-02T23:00:00Z,30.2583,-88.2131,3.939,11.05,1111122 
DISL,ioos:station:DISL:KATA:1,2017-07-02T23:30:00Z,30.2583,-88.2131,3.935,11.0,1111122 
DISL,ioos:station:DISL:KATA:1,2017-07-03T00:00:00Z,30.2583,-88.2131,3.929,10.94,1111122 
DISL,ioos:station:DISL:KATA:1,2017-07-03T00:30:00Z,30.2583,-88.2131,3.931,10.88,1111122 
DISL,ioos:station:DISL:KATA:1,2017-07-03T01:00:00Z,30.2583,-88.2131,3.939,10.91,1111122 
DISL,ioos:station:DISL:KATA:1,2017-07-03T01:30:00Z,30.2583,-88.2131,3.951,11.07,1111122 
DISL,ioos:station:DISL:KATA:1,2017-07-03T02:00:00Z,30.2583,-88.2131,3.967,11.18,1111122 
DISL,ioos:station:DISL:KATA:1,2017-07-03T02:30:00Z,30.2583,-88.2131,3.987,10.84,1111122 
DISL,ioos:station:DISL:KATA:1,2017-07-03T03:00:00Z,30.2583,-88.2131,4.007,10.87,1111122 
DISL,ioos:station:DISL:KATA:1,2017-07-03T03:30:00Z,30.2583,-88.2131,4.026,10.86,1111122 
DISL,ioos:station:DISL:KATA:1,2017-07-03T04:00:00Z,30.2583,-88.2131,4.026,10.86,1111122 
DISL,ioos:station:DISL:KATA:1,2017-07-03T04:30:00Z,30.2583,-88.2131,4.037,11.1,1111122 
DISL,ioos:station:DISL:KATA:1,2017-07-03T05:00:00Z,30.2583,-88.2131,4.039,11.35,1111122 
DISL,ioos:station:DISL:KATA:1,2017-07-03T05:30:00Z,30.2583,-88.2131,4.04,11.79,1111122 
DISL,ioos:station:DISL:KATA:1,2017-07-03T06:00:00Z,30.2583,-88.2131,4.043,11.85,1111122 
DISL,ioos:station:DISL:KATA:1,2017-07-03T06:30:00Z,30.2583,-88.2131,4.052,11.82,1111122 
DISL,ioos:station:DISL:KATA:1,2017-07-03T07:00:00Z,30.2583,-88.2131,4.063,12.03,1111122 
DISL,ioos:station:DISL:KATA:1,2017-07-03T07:30:00Z,30.2583,-88.2131,4.082,12.01,1111122 
DISL,ioos:station:DISL:KATA:1,2017-07-03T08:00:00Z,30.2583,-88.2131,4.102,12.1,1111122 
DISL,ioos:station:DISL:KATA:1,2017-07-03T08:30:00Z,30.2583,-88.2131,4.138,11.62,1111122 
DISL,ioos:station:DISL:KATA:1,2017-07-03T09:00:00Z,30.2583,-88.2131,4.162,11.18,1111122 
DISL,ioos:station:DISL:KATA:1,2017-07-03T09:30:00Z,30.2583,-88.2131,4.195,11.03,1111122 
DISL,ioos:station:DISL:KATA:1,2017-07-03T10:00:00Z,30.2583,-88.2131,4.214,11.37,1111122 
DISL,ioos:station:DISL:KATA:1,2017-07-03T10:30:00Z,30.2583,-88.2131,4.231,11.6,1111122 
DISL,ioos:station:DISL:KATA:1,2017-07-03T11:00:00Z,30.2583,-88.2131,4.241,11.47,1111122 
DISL,ioos:station:DISL:KATA:1,2017-07-03T11:30:00Z,30.2583,-88.2131,4.245,11.86,1111122 
DISL,ioos:station:DISL:KATA:1,2017-07-03T12:00:00Z,30.2583,-88.2131,4.23,12.03,1111122 
DISL,ioos:station:DISL:KATA:1,2017-07-03T12:30:00Z,30.2583,-88.2131,4.215,12.03,1111122 
DISL,ioos:station:DISL:KATA:1,2017-07-03T13:00:00Z,30.2583,-88.2131,4.207,12.05,1111122 
DISL,ioos:station:DISL:KATA:1,2017-07-03T13:30:00Z,30.2583,-88.2131,4.203,12.09,1111122 
DISL,ioos:station:DISL:KATA:1,2017-07-03T14:00:00Z,30.2583,-88.2131,4.203,12.11,1111122 
DISL,ioos:station:DISL:KATA:1,2017-07-03T14:30:00Z,30.2583,-88.2131,4.201,12.02,1111122 
DISL,ioos:station:DISL:KATA:1,2017-07-03T15:00:00Z,30.2583,-88.2131,4.201,12.02,1111122 
DISL,ioos:station:DISL:KATA:1,2017-07-03T15:30:00Z,30.2583,-88.2131,4.201,12.02,1111122 
DISL,ioos:station:DISL:KATA:1,2017-07-03T16:00:00Z,30.2583,-88.2131,4.153,11.76,1111122 
DISL,ioos:station:DISL:KATA:1,2017-07-03T16:30:00Z,30.2583,-88.2131,4.118,11.73,1111122 
DISL,ioos:station:DISL:KATA:1,2017-07-03T17:00:00Z,30.2583,-88.2131,4.08,11.6,1111122 
DISL,ioos:station:DISL:KATA:1,2017-07-03T17:30:00Z,30.2583,-88.2131,4.049,11.18,1111122 
DISL,ioos:station:DISL:KATA:1,2017-07-03T18:00:00Z,30.2583,-88.2131,4.049,11.18,1111122 
DISL,ioos:station:DISL:KATA:1,2017-07-03T18:30:00Z,30.2583,-88.2131,4.049,11.18,1111122 
DISL,ioos:station:DISL:KATA:1,2017-07-03T19:00:00Z,30.2583,-88.2131,4.049,11.18,1111122 
DISL,ioos:station:DISL:KATA:1,2017-07-03T19:30:00Z,30.2583,-88.2131,4.049,11.18,1111122 
DISL,ioos:station:DISL:KATA:1,2017-07-03T20:00:00Z,30.2583,-88.2131,4.049,11.18,1111122 
DISL,ioos:station:DISL:KATA:1,2017-07-03T20:30:00Z,30.2583,-88.2131,3.916,11.24,1111122 
DISL,ioos:station:DISL:KATA:1,2017-07-03T21:00:00Z,30.2583,-88.2131,3.91,11.18,1111122 
DISL,ioos:station:DISL:KATA:1,2017-07-03T21:30:00Z,30.2583,-88.2131,3.896,11.12,1111122 
DISL,ioos:station:DISL:KATA:1,2017-07-03T22:00:00Z,30.2583,-88.2131,3.89,11.08,1111122 
DISL,ioos:station:DISL:KATA:1,2017-07-03T22:30:00Z,30.2583,-88.2131,3.89,11.08,1111122 
DISL,ioos:station:DISL:KATA:1,2017-07-03T23:00:00Z,30.2583,-88.2131,3.89,11.08,1111122 
DISL,ioos:station:DISL:KATA:1,2017-07-03T23:30:00Z,30.2583,-88.2131,3.884,11.13,1111122 
DISL,ioos:station:DISL:KATA:1,2017-07-04T00:00:00Z,30.2583,-88.2131,3.885,11.03,1111122 
DISL,ioos:station:DISL:KATA:1,2017-07-04T00:30:00Z,30.2583,-88.2131,3.885,11.03,1111122 
DISL,ioos:station:DISL:KATA:1,2017-07-04T01:00:00Z,30.2583,-88.2131,3.901,10.91,1111122 
DISL,ioos:station:DISL:KATA:1,2017-07-04T01:30:00Z,30.2583,-88.2131,3.901,10.91,1111122 
DISL,ioos:station:DISL:KATA:1,2017-07-04T02:00:00Z,30.2583,-88.2131,3.936,10.73,1111122 
DISL,ioos:station:DISL:KATA:1,2017-07-04T02:30:00Z,30.2583,-88.2131,3.936,10.73,1111122 
DISL,ioos:station:DISL:KATA:1,2017-07-04T03:00:00Z,30.2583,-88.2131,3.989,10.87,1111122 
DISL,ioos:station:DISL:KATA:1,2017-07-04T03:30:00Z,30.2583,-88.2131,4.005,10.94,1111122 
DISL,ioos:station:DISL:KATA:1,2017-07-04T04:00:00Z,30.2583,-88.2131,4.021,11.02,1111122 
DISL,ioos:station:DISL:KATA:1,2017-07-04T04:30:00Z,30.2583,-88.2131,4.03,11.02,1111122 
DISL,ioos:station:DISL:KATA:1,2017-07-04T05:00:00Z,30.2583,-88.2131,4.039,11.13,1111122 
DISL,ioos:station:DISL:KATA:1,2017-07-04T05:30:00Z,30.2583,-88.2131,4.063,10.9,1111122 
DISL,ioos:station:DISL:KATA:1,2017-07-04T06:00:00Z,30.2583,-88.2131,4.085,11.0,1111122 
DISL,ioos:station:DISL:KATA:1,2017-07-04T06:30:00Z,30.2583,-88.2131,4.116,11.05,1111122 
DISL,ioos:station:DISL:KATA:1,2017-07-04T07:00:00Z,30.2583,-88.2131,4.139,11.01,1111122 
DISL,ioos:station:DISL:KATA:1,2017-07-04T07:30:00Z,30.2583,-88.2131,4.172,10.99,1111122 
DISL,ioos:station:DISL:KATA:1,2017-07-04T08:00:00Z,30.2583,-88.2131,4.202,10.94,1111122 
DISL,ioos:station:DISL:KATA:1,2017-07-04T08:30:00Z,30.2583,-88.2131,4.219,10.92,1111122 
DISL,ioos:station:DISL:KATA:1,2017-07-04T09:00:00Z,30.2583,-88.2131,4.253,9.18,1111122 
DISL,ioos:station:DISL:KATA:1,2017-07-04T09:30:00Z,30.2583,-88.2131,4.271,8.82,1111122 
DISL,ioos:station:DISL:KATA:1,2017-07-04T10:00:00Z,30.2583,-88.2131,4.283,9.04,1111122 
DISL,ioos:station:DISL:KATA:1,2017-07-04T10:30:00Z,30.2583,-88.2131,4.277,8.84,1111122 
DISL,ioos:station:DISL:KATA:1,2017-07-04T11:00:00Z,30.2583,-88.2131,4.271,8.92,1111122 
DISL,ioos:station:DISL:KATA:1,2017-07-04T11:30:00Z,30.2583,-88.2131,4.26,10.46,1111122 
DISL,ioos:station:DISL:KATA:1,2017-07-04T12:00:00Z,30.2583,-88.2131,4.244,10.45,1111122 
DISL,ioos:station:DISL:KATA:1,2017-07-04T12:30:00Z,30.2583,-88.2131,4.247,10.29,1111122 
DISL,ioos:station:DISL:KATA:1,2017-07-04T13:00:00Z,30.2583,-88.2131,4.247,10.18,1111122 
DISL,ioos:station:DISL:KATA:1,2017-07-04T13:30:00Z,30.2583,-88.2131,4.249,9.91,1111122 
DISL,ioos:station:DISL:KATA:1,2017-07-04T14:00:00Z,30.2583,-88.2131,4.252,9.97,1111122 
DISL,ioos:station:DISL:KATA:1,2017-07-04T14:30:00Z,30.2583,-88.2131,4.246,10.14,1111122 
DISL,ioos:station:DISL:KATA:1,2017-07-04T15:00:00Z,30.2583,-88.2131,4.238,9.89,1111122 
DISL,ioos:station:DISL:KATA:1,2017-07-04T15:30:00Z,30.2583,-88.2131,4.232,9.14,1111122 
DISL,ioos:station:DISL:KATA:1,2017-07-04T16:00:00Z,30.2583,-88.2131,4.215,9.22,1111122 
DISL,ioos:station:DISL:KATA:1,2017-07-04T16:30:00Z,30.2583,-88.2131,4.215,9.22,1111122 
DISL,ioos:station:DISL:KATA:1,2017-07-04T17:00:00Z,30.2583,-88.2131,4.215,9.22,1111122 
DISL,ioos:station:DISL:KATA:1,2017-07-04T17:30:00Z,30.2583,-88.2131,4.104,9.84,1111122 
DISL,ioos:station:DISL:KATA:1,2017-07-04T18:00:00Z,30.2583,-88.2131,4.054,9.8,1111122 
DISL,ioos:station:DISL:KATA:1,2017-07-04T18:30:00Z,30.2583,-88.2131,4.016,9.61,1111122 
DISL,ioos:station:DISL:KATA:1,2017-07-04T19:00:00Z,30.2583,-88.2131,4.016,9.61,1111122 
DISL,ioos:station:DISL:KATA:1,2017-07-04T19:30:00Z,30.2583,-88.2131,3.953,8.38,1111122 
DISL,ioos:station:DISL:KATA:1,2017-07-04T20:00:00Z,30.2583,-88.2131,3.932,8.58,1111122 
DISL,ioos:station:DISL:KATA:1,2017-07-04T20:30:00Z,30.2583,-88.2131,3.904,9.0,1111122 
DISL,ioos:station:DISL:KATA:1,2017-07-04T21:00:00Z,30.2583,-88.2131,3.883,9.01,1111122 
DISL,ioos:station:DISL:KATA:1,2017-07-04T21:30:00Z,30.2583,-88.2131,3.864,9.36,1111122 
DISL,ioos:station:DISL:KATA:1,2017-07-04T22:00:00Z,30.2583,-88.2131,3.852,9.62,1111122 
DISL,ioos:station:DISL:KATA:1,2017-07-04T22:30:00Z,30.2583,-88.2131,3.849,9.65,1111122 
DISL,ioos:station:DISL:KATA:1,2017-07-04T23:00:00Z,30.2583,-88.2131,3.843,9.62,1111122 
DISL,ioos:station:DISL:KATA:1,2017-07-04T23:30:00Z,30.2583,-88.2131,3.85,9.57,1111122 
DISL,ioos:station:DISL:KATA:1,2017-07-05T00:00:00Z,30.2583,-88.2131,3.86,9.45,1111122 
DISL,ioos:station:DISL:KATA:1,2017-07-05T00:30:00Z,30.2583,-88.2131,3.868,9.59,1111122 
DISL,ioos:station:DISL:KATA:1,2017-07-05T01:00:00Z,30.2583,-88.2131,3.895,9.32,1111122 
DISL,ioos:station:DISL:KATA:1,2017-07-05T01:30:00Z,30.2583,-88.2131,3.895,9.32,1111122 
DISL,ioos:station:DISL:KATA:1,2017-07-05T02:00:00Z,30.2583,-88.2131,3.932,9.27,1111122 
DISL,ioos:station:DISL:KATA:1,2017-07-05T02:30:00Z,30.2583,-88.2131,3.932,9.27,1111122 
DISL,ioos:station:DISL:KATA:1,2017-07-05T03:00:00Z,30.2583,-88.2131,3.932,9.27,1111122 
DISL,ioos:station:DISL:KATA:1,2017-07-05T03:30:00Z,30.2583,-88.2131,4.015,9.03,1111122 
DISL,ioos:station:DISL:KATA:1,2017-07-05T04:00:00Z,30.2583,-88.2131,4.043,9.03,1111122 
DISL,ioos:station:DISL:KATA:1,2017-07-05T04:30:00Z,30.2583,-88.2131,4.067,9.01,1111122 
DISL,ioos:station:DISL:KATA:1,2017-07-05T05:00:00Z,30.2583,-88.2131,4.067,9.01,1111122 
DISL,ioos:station:DISL:KATA:1,2017-07-05T05:30:00Z,30.2583,-88.2131,4.096,8.96,1111122 
DISL,ioos:station:DISL:KATA:1,2017-07-05T06:00:00Z,30.2583,-88.2131,4.118,8.7,1111122 
DISL,ioos:station:DISL:KATA:1,2017-07-05T06:30:00Z,30.2583,-88.2131,4.118,8.7,1111122 
DISL,ioos:station:DISL:KATA:1,2017-07-05T07:00:00Z,30.2583,-88.2131,4.118,8.7,1111122 
DISL,ioos:station:DISL:KATA:1,2017-07-05T07:30:00Z,30.2583,-88.2131,4.15,8.38,1111122 
DISL,ioos:station:DISL:KATA:1,2017-07-05T08:00:00Z,30.2583,-88.2131,4.159,8.69,1111122 
DISL,ioos:station:DISL:KATA:1,2017-07-05T08:30:00Z,30.2583,-88.2131,4.179,8.26,1111122 
DISL,ioos:station:DISL:KATA:1,2017-07-05T09:00:00Z,30.2583,-88.2131,4.216,7.94,1111122 
DISL,ioos:station:DISL:KATA:1,2017-07-05T09:30:00Z,30.2583,-88.2131,4.241,8.37,1111122 
DISL,ioos:station:DISL:KATA:1,2017-07-05T10:00:00Z,30.2583,-88.2131,4.269,8.07,1111122 
DISL,ioos:station:DISL:KATA:1,2017-07-05T10:30:00Z,30.2583,-88.2131,4.288,8.02,1111122 
DISL,ioos:station:DISL:KATA:1,2017-07-05T11:00:00Z,30.2583,-88.2131,4.307,8.04,1111122 
DISL,ioos:station:DISL:KATA:1,2017-07-05T11:30:00Z,30.2583,-88.2131,4.321,8.02,1111122 
DISL,ioos:station:DISL:KATA:1,2017-07-05T12:00:00Z,30.2583,-88.2131,4.327,8.0,1111122 
DISL,ioos:station:DISL:KATA:1,2017-07-05T12:30:00Z,30.2583,-88.2131,4.327,8.0,1111122 
DISL,ioos:station:DISL:KATA:1,2017-07-05T13:00:00Z,30.2583,-88.2131,4.334,8.24,1111122 
DISL,ioos:station:DISL:KATA:1,2017-07-05T13:30:00Z,30.2583,-88.2131,4.338,8.21,1111122 
DISL,ioos:station:DISL:KATA:1,2017-07-05T14:00:00Z,30.2583,-88.2131,4.338,8.21,1111122 
DISL,ioos:station:DISL:KATA:1,2017-07-05T14:30:00Z,30.2583,-88.2131,4.342,8.89,1111122 
DISL,ioos:station:DISL:KATA:1,2017-07-05T15:00:00Z,30.2583,-88.2131,4.335,8.66,1111122 
DISL,ioos:station:DISL:KATA:1,2017-07-05T15:30:00Z,30.2583,-88.2131,4.304,8.8,1111122 
DISL,ioos:station:DISL:KATA:1,2017-07-05T16:00:00Z,30.2583,-88.2131,4.266,8.66,1111122 
DISL,ioos:station:DISL:KATA:1,2017-07-05T16:30:00Z,30.2583,-88.2131,4.223,8.6,1111122 
DISL,ioos:station:DISL:KATA:1,2017-07-05T17:00:00Z,30.2583,-88.2131,4.181,8.49,1111122 
DISL,ioos:station:DISL:KATA:1,2017-07-05T17:30:00Z,30.2583,-88.2131,4.151,8.09,1111122 
DISL,ioos:station:DISL:KATA:1,2017-07-05T18:00:00Z,30.2583,-88.2131,4.113,8.24,1111122 
DISL,ioos:station:DISL:KATA:1,2017-07-05T18:30:00Z,30.2583,-88.2131,4.075,8.14,1111122 
DISL,ioos:station:DISL:KATA:1,2017-07-05T19:00:00Z,30.2583,-88.2131,4.039,8.09,1111122 
DISL,ioos:station:DISL:KATA:1,2017-07-05T19:30:00Z,30.2583,-88.2131,4.001,8.05,1111122 
DISL,ioos:station:DISL:KATA:1,2017-07-05T20:00:00Z,30.2583,-88.2131,3.97,8.05,1111122 
DISL,ioos:station:DISL:KATA:1,2017-07-05T20:30:00Z,30.2583,-88.2131,3.932,8.06,1111122 
DISL,ioos:station:DISL:KATA:1,2017-07-05T21:00:00Z,30.2583,-88.2131,3.908,8.07,1111122 
DISL,ioos:station:DISL:KATA:1,2017-07-05T21:30:00Z,30.2583,-88.2131,3.873,8.07,1111122 
DISL,ioos:station:DISL:KATA:1,2017-07-05T22:00:00Z,30.2583,-88.2131,3.857,7.77,1111122 
DISL,ioos:station:DISL:KATA:1,2017-07-05T22:30:00Z,30.2583,-88.2131,3.84,8.07,1111122 
DISL,ioos:station:DISL:KATA:1,2017-07-05T23:00:00Z,30.2583,-88.2131,3.837,6.94,1111122 
DISL,ioos:station:DISL:KATA:1,2017-07-05T23:30:00Z,30.2583,-88.2131,3.832,7.89,1111122 
DISL,ioos:station:DISL:KATA:1,2017-07-06T00:00:00Z,30.2583,-88.2131,3.831,7.57,1111122 
DISL,ioos:station:DISL:KATA:1,2017-07-06T00:30:00Z,30.2583,-88.2131,3.837,7.9,1111122 
DISL,ioos:station:DISL:KATA:1,2017-07-06T01:00:00Z,30.2583,-88.2131,3.86,7.89,1111122 
DISL,ioos:station:DISL:KATA:1,2017-07-06T01:30:00Z,30.2583,-88.2131,3.883,8.11,1111122 
DISL,ioos:station:DISL:KATA:1,2017-07-06T02:00:00Z,30.2583,-88.2131,3.911,8.09,1111122 
DISL,ioos:station:DISL:KATA:1,2017-07-06T02:30:00Z,30.2583,-88.2131,3.935,8.09,1111122 
DISL,ioos:station:DISL:KATA:1,2017-07-06T03:00:00Z,30.2583,-88.2131,3.968,7.96,1111122 
DISL,ioos:station:DISL:KATA:1,2017-07-06T03:30:00Z,30.2583,-88.2131,3.993,8.06,1111122 
DISL,ioos:station:DISL:KATA:1,2017-07-06T04:00:00Z,30.2583,-88.2131,4.006,8.03,1111122 
DISL,ioos:station:DISL:KATA:1,2017-07-06T04:30:00Z,30.2583,-88.2131,4.037,8.02,1111122 
DISL,ioos:station:DISL:KATA:1,2017-07-06T05:00:00Z,30.2583,-88.2131,4.037,8.02,1111122 
DISL,ioos:station:DISL:KATA:1,2017-07-06T05:30:00Z,30.2583,-88.2131,4.073,8.02,1111122 
DISL,ioos:station:DISL:KATA:1,2017-07-06T06:00:00Z,30.2583,-88.2131,4.1,8.02,1111122 
DISL,ioos:station:DISL:KATA:1,2017-07-06T06:30:00Z,30.2583,-88.2131,4.117,8.01,1111122 
DISL,ioos:station:DISL:KATA:1,2017-07-06T07:00:00Z,30.2583,-88.2131,4.124,7.98,1111122 
DISL,ioos:station:DISL:KATA:1,2017-07-06T07:30:00Z,30.2583,-88.2131,4.147,8.0,1111122 
DISL,ioos:station:DISL:KATA:1,2017-07-06T08:00:00Z,30.2583,-88.2131,4.163,8.02,1111122 
DISL,ioos:station:DISL:KATA:1,2017-07-06T08:30:00Z,30.2583,-88.2131,4.178,8.03,1111122 
DISL,ioos:station:DISL:KATA:1,2017-07-06T09:00:00Z,30.2583,-88.2131,4.178,8.03,1111122 
DISL,ioos:station:DISL:KATA:1,2017-07-06T09:30:00Z,30.2583,-88.2131,4.225,8.05,1111122 
DISL,ioos:station:DISL:KATA:1,2017-07-06T10:00:00Z,30.2583,-88.2131,4.251,8.08,1111122 
DISL,ioos:station:DISL:KATA:1,2017-07-06T10:30:00Z,30.2583,-88.2131,4.251,8.08,1111122 
DISL,ioos:station:DISL:KATA:1,2017-07-06T11:00:00Z,30.2583,-88.2131,4.251,8.08,1111122 
DISL,ioos:station:DISL:KATA:1,2017-07-06T11:30:00Z,30.2583,-88.2131,4.33,8.13,1111122 
DISL,ioos:station:DISL:KATA:1,2017-07-06T12:00:00Z,30.2583,-88.2131,4.356,8.12,1111122 
DISL,ioos:station:DISL:KATA:1,2017-07-06T12:30:00Z,30.2583,-88.2131,4.356,8.12,1111122 
DISL,ioos:station:DISL:KATA:1,2017-07-06T13:00:00Z,30.2583,-88.2131,4.387,8.2,1111122 
DISL,ioos:station:DISL:KATA:1,2017-07-06T13:30:00Z,30.2583,-88.2131,4.399,8.24,1111122 
DISL,ioos:station:DISL:KATA:1,2017-07-06T14:00:00Z,30.2583,-88.2131,4.378,8.26,1111122 
DISL,ioos:station:DISL:KATA:1,2017-07-06T14:30:00Z,30.2583,-88.2131,4.345,8.02,1111122 